Погода в Должанской

Россия / Краснодарский край     46°38′18″N   37°48′03″E
темп.,
°C
ветер,
м/с
пор.,
м/с
влажн.,
%
обл.,
%
осадки,
мм/ч
давл.,
гПа
погр.,
м
21 апреля, ср
ср2100:00+9ююз12149495 0.9 1007537
03:00+10зюз11159278 1.0 1010386
06:00+9зюз1012905 0.0 1013323
09:00+9юз79905 0.0 1016291
12:00+10юз710895 0.0 1017240
15:00+10юз69875 0.0 1018169
18:00+10ююз69821 0.0 1018135
21:00+10ююз57855 0.0 102089
22 апреля, чт
чт2200:00+10ююз44905 0.0 102068
03:00+10зюз33875 0.0 102131
06:00+10з22885 0.0 102132
09:00+10зсз11855 0.0 102217
12:00+11зюз2381100 0.0 102370
15:00+11зюз4579100 0.0 1023119
18:00+11зюз4578100 0.0 102275
21:00+11з44760 0.0 102330
23 апреля, пт
пт2300:00+11зюз33750 0.0 102224
03:00+11зюз44740 0.0 102235
06:00+10ю23802 0.0 102225
09:00+11ююз34812 0.0 102246
12:00+11ююз568123 0.0 1022111
15:00+11юз5682100 0.0 1021112
18:00+12ююз4479100 0.0 101950
21:00+11ююз4578100 0.0 101960
24 апреля, сб
сб2400:00+11ююз5879100 0.0 1017110
03:00+10ююз7128355 0.0 1017283
06:00+10юз69875 0.0 1016267
09:00+10з6789100 0.0 1017417
12:00+10ссз457726 0.0 1018372
15:00+10юз77780 0.0 1018295
18:00+10юз810755 0.0 1018341
21:00+10зюз1013765 0.0 1019420
25 апреля, вс
вс2500:00+10зсз8106181 0.0 1020863
03:00+8зсз6958100 0.0 1021991
06:00+8зсз7859100 0.0 1021922
09:00+8сз5657100 0.0 1022608
12:00+9з3447100 0.0 1021705
15:00+9юз4451100 0.0 1020340
18:00+9юз6557100 0.0 1020309
21:00+10зюз5660100 0.0 1020335